Horyu-4
1 41340U 16012D 20338.41276102 .00001238 00000-0 86428-4 0 9997
2 41340 31.0063 335.7000 0013803 26.2073 333.9259 15.01657335263292
OUFTI-1
1 41458U 16025C 20337.92079021 .00002799 00000-0 14066-3 0 9998
2 41458 98.1217 97.6327 0161473 2.8424 357.3681 15.07533391252850
e-st@r-II
1 41459U 16025D 20338.61511142 .00003409 00000-0 17209-3 0 9992
2 41459 98.1198 97.6335 0162675 2.7733 357.4379 15.07048704252916
AAUSAT4
1 41460U 16025E 20338.61409510 .00004863 00000-0 23520-3 0 9997
2 41460 98.1195 100.6046 0150776 349.3810 10.4214 15.09625984253158
LO-87
1 41557U 16033B 20338.65797632 .00004364 00000-0 15948-3 0 9993
2 41557 97.4015 67.7995 0012627 202.7950 263.3763 15.28558884251615
NuSat2
1 41558U 16033C 20338.66322553 .00004820 00000-0 16526-3 0 9991
2 41558 97.4089 70.7664 0011667 197.7567 268.8294 15.30602225251761
Lapan A3
1 41603U 16040E 20338.68590263 .00000506 00000-0 26600-4 0 9999
2 41603 97.2870 26.7118 0012851 336.8231 180.7946 15.19917370246849
Swayam
1 41607U 16040J 20338.15415396 .00004141 00000-0 16931-3 0 9992
2 41607 97.2965 33.3937 0011655 317.2562 42.7769 15.24843839247128
Pratham
1 41783U 16059A 20338.39620810 .00000140 00000-0 36165-4 0 9999
2 41783 97.9946 28.9052 0034429 142.4389 217.9228 14.63093133223582
AlSat 1N
1 41789U 16059G 20338.60909693 .00000216 00000-0 49599-4 0 9997
2 41789 97.9990 32.3327 0029408 128.2872 232.0985 14.64366267223783
ScatSat
1 41790U 16059H 20338.63452968 .00000067 00000-0 28488-4 0 9998
2 41790 98.3961 15.2951 0006270 111.7887 248.3975 14.50797252221757
TY-1
1 41844U 16066D 20338.66685115 .00002527 00000-0 10319-3 0 9997
2 41844 97.4015 344.9665 0016497 105.8039 29.9015 15.25205917226057
Pegasus-1
1 41846U 16066F 20338.11527093 .00000590 00000-0 98017-4 0 9999
2 41846 98.6400 29.7535 0367536 90.8206 273.5102 14.37886901213203
CAS-2T
1 41847U 16066G 20338.14001977 .00000212 00000-0 41280-4 0 9992
2 41847 98.6319 30.1596 0366579 86.1496 278.1513 14.38120967213662
EO-88
1 42017U 17008BX 20337.85902491 .00004502 00000-0 17189-3 0 9993
2 42017 97.3419 42.8403 0007779 87.9181 272.2949 15.27125572211246
CAS-4B
1 42759U 17034B 20338.64446013 .00000836 00000-0 63948-4 0 9997
2 42759 43.0172 177.3829 0010319 9.5505 98.4387 15.09983542191546
CAS-4A
1 42761U 17034D 20338.64616913 .00000815 00000-0 62574-4 0 9999
2 42761 43.0169 176.5611 0010683 11.1508 97.5167 15.10063124191544
UCLSat
1 42765U 17036A 20338.12912361 .00003508 00000-0 14734-3 0 9990
2 42765 97.2790 27.6707 0012076 144.6356 215.5685 15.24027086192261
NIUSat
1 42766U 17036B 20338.44852769 .00002543 00000-0 11366-3 0 9997
2 42766 97.2786 24.9798 0016347 141.2958 218.9453 15.22104038191397
LituanicaSAT 2
1 42768U 17036D 20338.09709231 .00006062 00000-0 24567-3 0 9992
2 42768 97.2856 27.9164 0015533 136.3532 223.8938 15.24901818191538
Aalto 1
1 42775U 17036L 20338.09286372 .00002208 00000-0 98967-4 0 9990
2 42775 97.2763 24.9570 0014795 141.0841 219.1464 15.22158490191323
URSA MAIOR
1 42776U 17036M 20338.38923575 .00002287 00000-0 10178-3 0 9990
2 42776 97.2776 25.6050 0014603 139.7967 220.4353 15.22375915191381
Max Valier Sat
1 42778U 17036P 20338.41944306 .00002577 00000-0 11227-3 0 9999
2 42778 97.2835 27.2051 0013186 141.7594 218.4580 15.23001664191446
Pegasus
1 42784U 17036V 20338.38707102 .00002932 00000-0 12485-3 0 9995
2 42784 97.2795 27.5403 0012648 145.3106 214.8959 15.23678846191490
NUDATSat
1 42787U 17036Y 20338.61698331 .00005343 00000-0 21508-3 0 9992
2 42787 97.2839 29.5781 0011705 138.5825 221.6304 15.25230746191471
SUCHAI 1
1 42788U 17036Z 20338.14966229 .00003977 00000-0 16520-3 0 9994
2 42788 97.2805 28.0646 0012201 143.8199 216.3866 15.24315808191571
SKCUBE
1 42789U 17036AA 20338.14920882 .00003711 00000-0 15526-3 0 9991
2 42789 97.2799 27.8605 0012092 144.1748 216.0303 15.24119106191484
VZLUSAT 1
1 42790U 17036AB 20338.14879066 .00004707 00000-0 19000-3 0 9997
2 42790 97.2828 29.1139 0011636 141.1715 219.0361 15.25196205191551
VENTA 1
1 42791U 17036AC 20338.12585271 .00003475 00000-0 14568-3 0 9993
2 42791 97.2796 27.8692 0011758 144.5659 215.6362 15.24094333191476
Robusta 1B
1 42792U 17036AD 20338.14673049 .00003734 00000-0 15528-3 0 9992
2 42792 97.2801 28.1648 0011681 144.1506 216.0518 15.24326778191515
D-SAT
1 42794U 17036AF 20338.05553151 .00000416 00000-0 41049-4 0 9997
2 42794 97.4779 2.2282 0126500 161.4584 199.1308 14.91381941187783
TechnoSat
1 42829U 17042E 20338.38730293 .00000421 00000-0 47557-4 0 9999
2 42829 97.4940 211.9862 0015753 82.3251 277.9756 14.91175126184464
QIKCOM-1
1 42983U 98067NF 20338.81824955 .00009711 00000-0 10879-3 0 9990
2 42983 51.6359 170.8201 0002879 338.7783 21.3091 15.63422228176769
AO-91
1 43017U 17073E 20338.18373858 .00001223 00000-0 10036-3 0 9993
2 43017 97.7164 243.8492 0255114 220.2428 137.9654 14.79189842164101
EcAMSat
1 43019U 98067NG 20338.74718036 .00023509 00000-0 19431-3 0 9999
2 43019 51.6389 150.1858 0002729 321.0051 39.0750 15.70170271259350
PICSAT
1 43132U 18004X 20338.11954348 .00003937 00000-0 16066-3 0 9991
2 43132 97.4315 48.3175 0009589 170.8956 189.2458 15.24971744160759
AO-92
1 43137U 18004AC 20338.19563791 .00003167 00000-0 13143-3 0 9990
2 43137 97.4297 48.0896 0009170 172.4258 187.7120 15.24551711160745
TianYi 2
1 43155U 18008A 20338.66283205 .00002720 00000-0 16196-3 0 9990
2 43155 97.4299 43.2928 0015917 286.4072 176.7679 15.11943048158485
Zhou Enlai
1 43156U 18008B 20338.67641799 .00002250 00000-0 13638-3 0 9994
2 43156 97.4336 43.1438 0013068 286.3332 176.4288 15.11510381158434
TianYi 6
1 43158U 18008D 20338.27270992 .00001843 00000-0 11397-3 0 9992
2 43158 97.4269 41.5933 0012362 287.1835 113.6995 15.11005553158311
S-Net D
1 43186U 18014G 20337.50576915 .00000785 00000-0 73338-4 0 9997
2 43186 97.6862 242.5112 0011925 29.4915 330.6977 14.96912216154834
S-Net B
1 43187U 18014H 20338.30777435 .00000617 00000-0 58758-4 0 9990
2 43187 97.6860 243.2729 0011856 26.7740 333.4092 14.96912993154958
S-Net A
1 43188U 18014J 20338.30766511 .00000618 00000-0 58801-4 0 9994
2 43188 97.6863 243.3092 0011847 26.9164 333.2670 14.96912150154953
S-Net C
1 43189U 18014K 20338.17446643 .00000619 00000-0 58904-4 0 9996
2 43189 97.6859 243.1360 0011845 27.1606 333.0233 14.96911872153487
FMN 1
1 43192U 18015A 20338.65117579 .00007174 00000-0 27689-3 0 9995
2 43192 97.4641 107.6399 0014671 208.7197 277.4812 15.26495720157702
Shaonian Xing
1 43199U 18015H 20338.63605012 .00005450 00000-0 21142-3 0 9997
2 43199 97.4426 105.4326 0015507 219.3075 261.7101 15.26426882157764
UBAKUSAT
1 43467U 98067NQ 20338.43389061 .00285334 44615-4 59153-3 0 9999
2 43467 51.6273 123.3460 0004939 301.7374 58.3154 15.98628928146868
EQUISat
1 43552U 98067PA 20338.42341629 .00314399 51552-4 67486-3 0 9991
2 43552 51.6244 131.6097 0004638 309.4625 50.5973 15.97993474136940
SiriusSat 1
1 43595U 98067PG 20336.93934113 .00499585 13510-3 56251-3 0 9998
2 43595 51.6154 139.4484 0008862 213.0965 150.2840 16.08623430131551
SiriusSat 2
1 43596U 98067PH 20337.50611269 .00532942 15530-3 57179-3 0 9996
2 43596 51.5972 137.2258 0003044 273.3097 86.7175 16.09445311131630
SurfSat
1 43614U 18070B 20338.46038841 .00007049 00000-0 17435-3 0 9997
2 43614 93.0280 224.6098 0017077 50.8101 309.4667 15.40319465124482
CP-7 DAVE
1 43615U 18070C 20338.18557004 .00007109 00000-0 17703-3 0 9999
2 43615 93.0283 224.4743 0017273 51.4311 308.8488 15.40107147124430
